TimeEDT,TemperatureF,Dew PointF,Humidity,Sea Level PressureIn,VisibilityMPH,Wind Direction,Wind SpeedMPH,Gust SpeedMPH,PrecipitationIn,Events,Conditions,WindDirDegrees,DateUTC
12:15 AM,38.3,22.1,52,30.28,10.0,NNE,3.5,-,N/A,,Clear,20,2013-03-10 05:15:00
12:35 AM,37.4,21.9,54,30.27,10.0,Calm,Calm,-,N/A,,Clear,0,2013-03-10 05:35:00
12:55 AM,36.5,20.3,52,30.27,10.0,Calm,Calm,-,N/A,,Clear,0,2013-03-10 05:55:00
1:15 AM,36.0,21.9,57,30.27,10.0,Calm,Calm,-,N/A,,Clear,0,2013-03-10 06:15:00
1:35 AM,35.6,22.1,58,30.27,10.0,Calm,Calm,-,N/A,,Clear,0,2013-03-10 06:35:00
1:55 AM,34.9,21.6,58,30.25,10.0,Calm,Calm,-,N/A,,Clear,0,2013-03-10 06:55:00
3:15 AM,34.5,22.1,61,30.25,10.0,Calm,Calm,-,N/A,,Clear,0,2013-03-10 07:15:00
3:35 AM,34.9,23.4,63,30.24,10.0,Calm,Calm,-,N/A,,Clear,0,2013-03-10 07:35:00
3:55 AM,35.1,22.8,61,30.24,10.0,Calm,Calm,-,N/A,,Clear,0,2013-03-10 07:55:00
4:15 AM,34.3,22.1,61,30.23,10.0,Calm,Calm,-,N/A,,Clear,0,2013-03-10 08:15:00
4:55 AM,34.3,26.2,72,30.24,10.0,Calm,Calm,-,N/A,,Clear,0,2013-03-10 08:55:00
5:15 AM,33.3,23.7,68,30.24,10.0,Calm,Calm,-,N/A,,Clear,0,2013-03-10 09:15:00
5:35 AM,33.1,22.6,66,30.24,10.0,Calm,Calm,-,N/A,,Clear,0,2013-03-10 09:35:00
5:55 AM,33.8,27.9,79,30.25,10.0,Calm,Calm,-,N/A,,Clear,0,2013-03-10 09:55:00
6:15 AM,33.1,27.0,78,30.25,10.0,Calm,Calm,-,N/A,,Clear,0,2013-03-10 10:15:00
6:35 AM,32.5,26.6,79,30.24,10.0,Calm,Calm,-,N/A,,Clear,0,2013-03-10 10:35:00
6:55 AM,32.5,26.2,78,30.24,10.0,Calm,Calm,-,N/A,,Mostly Cloudy,0,2013-03-10 10:55:00
7:15 AM,32.4,25.5,76,30.24,10.0,Calm,Calm,-,N/A,,Scattered Clouds,0,2013-03-10 11:15:00
8:35 AM,37.6,30.0,74,30.27,10.0,Calm,Calm,-,N/A,,Clear,0,2013-03-10 12:35:00
8:55 AM,42.4,33.8,71,30.27,10.0,Calm,Calm,-,N/A,,Clear,0,2013-03-10 12:55:00
9:15 AM,45.7,36.5,70,30.27,10.0,Calm,Calm,-,N/A,,Clear,0,2013-03-10 13:15:00
9:35 AM,48.7,37.9,66,30.27,10.0,Calm,Calm,-,N/A,,Clear,0,2013-03-10 13:35:00
9:55 AM,52.5,35.1,51,30.28,10.0,South,3.5,-,N/A,,Clear,170,2013-03-10 13:55:00
10:15 AM,54.1,34.9,48,30.28,10.0,SSE,3.5,-,N/A,,Clear,160,2013-03-10 14:15:00
10:35 AM,54.7,31.5,41,30.28,10.0,South,3.5,-,N/A,,Scattered Clouds,180,2013-03-10 14:35:00
10:55 AM,54.5,33.4,45,30.28,10.0,SE,4.6,-,N/A,,Scattered Clouds,140,2013-03-10 14:55:00
11:15 AM,55.9,33.1,42,30.28,10.0,ESE,5.8,-,N/A,,Scattered Clouds,120,2013-03-10 15:15:00
11:35 AM,58.3,31.3,36,30.28,10.0,South,4.6,-,N/A,,Scattered Clouds,190,2013-03-10 15:35:00
11:55 AM,60.3,31.6,34,30.27,10.0,SSE,6.9,-,N/A,,Clear,160,2013-03-10 15:55:00
12:15 PM,61.3,32.7,34,30.27,10.0,SSE,5.8,-,N/A,,Clear,160,2013-03-10 16:15:00
12:35 PM,62.6,32.7,33,30.26,10.0,SSE,8.1,-,N/A,,Clear,160,2013-03-10 16:35:00
12:55 PM,62.8,32.4,32,30.25,10.0,South,3.5,-,N/A,,Clear,190,2013-03-10 16:55:00
1:15 PM,65.5,32.4,29,30.24,10.0,South,3.5,-,N/A,,Clear,190,2013-03-10 17:15:00
1:35 PM,64.6,31.6,29,30.23,10.0,SE,5.8,9.2,N/A,,Clear,140,2013-03-10 17:35:00
1:55 PM,65.5,31.8,28,30.22,10.0,South,5.8,-,N/A,,Clear,170,2013-03-10 17:55:00
2:15 PM,66.4,31.5,27,30.21,10.0,South,11.5,-,N/A,,Clear,170,2013-03-10 18:15:00
2:35 PM,66.4,31.5,27,30.20,10.0,SSE,6.9,-,N/A,,Clear,150,2013-03-10 18:35:00
2:55 PM,66.6,29.5,25,30.20,10.0,South,5.8,-,N/A,,Clear,180,2013-03-10 18:55:00
3:15 PM,66.7,28.9,24,30.19,10.0,SSW,3.5,16.1,N/A,,Clear,200,2013-03-10 19:15:00
3:35 PM,66.6,27.1,23,30.18,10.0,SE,8.1,16.1,N/A,,Clear,140,2013-03-10 19:35:00
3:55 PM,66.4,29.1,25,30.18,10.0,SSE,6.9,-,N/A,,Clear,160,2013-03-10 19:55:00
4:15 PM,66.6,27.1,23,30.18,10.0,South,5.8,-,N/A,,Clear,180,2013-03-10 20:15:00
4:35 PM,66.7,27.7,23,30.18,10.0,SSW,3.5,-,N/A,,Clear,200,2013-03-10 20:35:00
4:55 PM,65.5,27.3,24,30.18,10.0,South,5.8,16.1,N/A,,Clear,180,2013-03-10 20:55:00
5:15 PM,64.9,28.8,26,30.17,10.0,South,4.6,-,N/A,,Clear,170,2013-03-10 21:15:00
5:35 PM,65.1,28.4,25,30.18,10.0,South,6.9,-,N/A,,Clear,190,2013-03-10 21:35:00
5:55 PM,65.7,27.5,24,30.17,10.0,SSE,5.8,-,N/A,,Clear,160,2013-03-10 21:55:00
6:15 PM,64.8,27.5,25,30.17,10.0,SE,5.8,-,N/A,,Clear,140,2013-03-10 22:15:00
6:35 PM,62.4,28.4,28,30.17,10.0,SSE,3.5,-,N/A,,Clear,150,2013-03-10 22:35:00
6:55 PM,61.0,27.9,28,30.17,10.0,SSE,3.5,-,N/A,,Clear,160,2013-03-10 22:55:00
7:15 PM,59.0,28.0,31,30.17,10.0,SSE,4.6,-,N/A,,Clear,150,2013-03-10 23:15:00
7:35 PM,58.1,27.1,31,30.18,10.0,SE,3.5,-,N/A,,Clear,140,2013-03-10 23:35:00
7:55 PM,55.4,27.1,34,30.18,10.0,Calm,Calm,-,N/A,,Clear,0,2013-03-10 23:55:00
8:15 PM,53.6,21.9,29,30.19,10.0,Calm,Calm,-,N/A,,Clear,0,2013-03-11 00:15:00
8:35 PM,51.3,20.8,30,30.19,10.0,Calm,Calm,-,N/A,,Clear,0,2013-03-11 00:35:00
8:55 PM,50.2,26.1,39,30.19,10.0,Calm,Calm,-,N/A,,Clear,0,2013-03-11 00:55:00
9:15 PM,50.2,25.5,38,30.19,10.0,Calm,Calm,-,N/A,,Clear,0,2013-03-11 01:15:00
9:35 PM,49.5,29.8,47,30.19,10.0,Calm,Calm,-,N/A,,Clear,0,2013-03-11 01:35:00
9:55 PM,49.1,27.0,42,30.20,10.0,Calm,Calm,-,N/A,,Clear,0,2013-03-11 01:55:00
10:15 PM,50.0,28.4,43,30.20,10.0,Calm,Calm,-,N/A,,Clear,0,2013-03-11 02:15:00
10:35 PM,50.0,28.8,44,30.20,10.0,SE,3.5,-,N/A,,Clear,130,2013-03-11 02:35:00
10:55 PM,49.1,28.6,45,30.19,10.0,SE,4.6,-,N/A,,Clear,130,2013-03-11 02:55:00
11:15 PM,50.2,31.8,49,30.19,10.0,SE,4.6,-,N/A,,Clear,130,2013-03-11 03:15:00
11:35 PM,50.4,32.0,49,30.19,10.0,SSE,3.5,-,N/A,,Clear,150,2013-03-11 03:35:00
11:55 PM,50.9,32.0,48,30.19,10.0,SSE,4.6,-,N/A,,Clear,150,2013-03-11 03:55:00
12:15 AM,50.5,31.6,48,30.18,10.0,SE,3.5,-,N/A,,Clear,140,2013-03-11 04:15:00
12:35 AM,49.5,30.2,48,30.18,10.0,Calm,Calm,-,N/A,,Clear,0,2013-03-11 04:35:00
12:55 AM,48.2,30.0,49,30.17,10.0,SE,3.5,-,N/A,,Clear,140,2013-03-11 04:55:00